User: anonymous   Login
Location: Unspecified
(48.7670°N, 0.0000°E)
Time: 06:23:28
(UTC+00:00)
Language:

Vanguard 2 Rocket - Orbit

View from above orbital plane
View from above orbital plane
View from above satellite
View from above satellite

Ground track
Ground track

The orbit data is extracted from the following two-line orbital elements,

1    12U 59001B   20225.51647164 +.00000155 +00000-0 +93909-4 0  9998
2    12 032.8978 154.8255 1663989 010.6775 352.5049 11.44299696286409
Epoch (UTC): 12 August 2020 12:23:43
Eccentricity: 0.1663989
inclination: 32.8978°
perigee height: 556 km
apogee height: 3324 km
right ascension of ascending node: 154.8255°
argument of perigee: 10.6775°
revolutions per day: 11.44299696
mean anomaly at epoch: 352.5049°
orbit number at epoch: 28640

The dashed part of the orbit path shows where the satellite is in the earth's shadow,  

DLR